Retour au catalogue

FENGYUN 1C DEB

ActifLEO
NORAD 31568·DEBRIS·🇨🇳 China

Lancé May 10, 1999 depuis Taiyuan Satellite Launch Center

Loading…

Prochains Passages (prochaines 24 heures)

TLE

FraisSource: Space-Track

Époque: Sep 14, 2026, 05:05 UTC

1 31568U 99025BZK 26257.21245871  .00001834  00000-0  10981-2 0  9997
2 31568 102.0445 233.4383 0120195 155.6545 205.0353 14.05491909984478

Suivez FENGYUN 1C DEB en temps réel avec AllMySat

Download on the App Store